F4FEB-14 Weather Reports


time (UTC)temp
F
wind
direction
speed
knots
gust
knots
rain 1hr
in
rain 24hr
in
rain mn
in
humidity
%
barometer
mb
20260505201157 48 190 0.9 2.6 0.00 0.15 0.00 100 1011.4
20260505200656 48 175 0.9 2.6 0.00 0.15 0.00 100 1011.3
20260505200154 48 198 0.9 2.6 0.00 0.15 0.00 100 1011.3
20260505195653 48 174 0.9 1.7 0.00 0.15 0.00 100 1011.3
20260505194649 48 183 0.9 2.6 0.00 0.15 0.00 100 1011.3
20260505194147 49 270 0.0 2.6 0.00 0.15 0.00 100 1011.1
20260505193645 49 173 1.7 3.5 0.00 0.15 0.00 100 1011.0
20260505193143 49 254 0.9 3.5 0.00 0.15 0.00 100 1011.1
20260505192642 49 170 1.7 3.5 0.00 0.15 0.00 100 1010.9
20260505192141 50 162 2.6 3.5 0.00 0.15 0.00 100 1010.6
20260505191640 50 166 0.9 2.6 0.00 0.15 0.00 100 1010.6
20260505191137 50 178 1.7 2.6 0.00 0.15 0.00 100 1010.6
20260505190637 50 173 1.7 2.6 0.00 0.15 0.00 100 1010.6
20260505190135 50 179 0.9 0.9 0.00 0.15 0.00 100 1010.6
20260505185132 51 276 0.0 2.6 0.00 0.15 0.00 100 1010.7
20260505184631 51 238 0.0 2.6 0.00 0.15 0.00 100 1010.7
20260505184130 51 175 0.0 1.7 0.00 0.15 0.00 100 1010.7
20260505183629 52 244 0.0 0.9 0.00 0.15 0.00 100 1010.7
20260505183128 52 77 0.0 1.7 0.00 0.15 0.00 100 1010.7
20260505182628 52 159 0.9 1.7 0.00 0.15 0.00 100 1010.7
20260505182126 53 167 0.0 1.7 0.00 0.15 0.00 100 1010.8
20260505181118 53 167 1.7 3.5 0.00 0.15 0.00 100 1010.6
20260505180617 54 164 1.7 3.5 0.00 0.15 0.00 100 1010.6
20260505180116 54 189 0.0 1.7 0.00 0.15 0.00 100 1010.5
20260505175615 54 237 0.0 0.9 0.00 0.15 0.00 100 1010.5
20260505175113 55 262 0.0 0.9 0.00 0.15 0.00 100 1010.4
20260505174613 55 208 0.0 1.7 0.00 0.15 0.00 100 1010.5
20260505174112 55 258 0.0 2.6 0.00 0.15 0.00 100 1010.5
20260505173611 55 208 0.9 4.3 0.00 0.15 0.00 100 1010.5
20260505173109 56 164 1.7 4.3 0.00 0.15 0.00 100 1010.5
20260505172608 56 160 0.9 3.5 0.00 0.15 0.00 100 1010.6
20260505172106 56 250 0.9 3.5 0.00 0.15 0.00 100 1010.7
20260505171605 56 168 0.9 3.5 0.00 0.15 0.00 100 1010.7
20260505171103 56 159 2.6 5.2 0.00 0.15 0.00 100 1010.8
20260505170602 56 172 1.7 5.2 0.00 0.15 0.00 100 1010.7
20260505165559 56 171 2.6 5.2 0.00 0.15 0.00 100 1010.7
20260505165058 56 170 2.6 5.2 0.00 0.15 0.00 100 1010.6
20260505164557 56 163 2.6 6.1 0.00 0.15 0.00 100 1010.6
20260505164056 56 214 1.7 6.1 0.00 0.15 0.00 100 1010.7
20260505163554 56 178 2.6 5.2 0.00 0.15 0.00 100 1010.8
20260505163053 56 168 1.7 4.3 0.00 0.15 0.00 100 1010.8
20260505162553 56 270 0.0 3.5 0.00 0.15 0.00 100 1010.7
20260505162052 56 247 0.9 5.2 0.00 0.15 0.00 100 1010.7
20260505161550 56 198 1.7 5.2 0.00 0.15 0.00 100 1010.7
20260505161049 56 299 0.9 2.6 0.00 0.15 0.00 100 1010.8
20260505160548 57 270 0.0 6.1 0.00 0.15 0.00 100 1010.7
20260505152539 56 159 2.6 10.4 0.00 0.15 0.00 100 1010.8
20260505152037 56 167 4.3 10.4 0.00 0.15 0.00 100 1010.8
20260505151535 55 161 5.2 10.4 0.00 0.15 0.00 100 1010.7
20260505151034 55 167 5.2 8.7 0.00 0.15 0.00 100 1010.8
20260505150532 55 176 3.5 11.3 0.05 0.15 0.00 100 1010.8
20260505140516 65 165 4.3 11.3 0.00 0.11 0.00 100 1009.9
20260505124958 62 286 1.7 7.8 0.01 0.11 0.00 100 1010.3
20260505124456 62 164 2.6 11.3 0.01 0.11 0.00 100 1010.3
20260505123956 62 179 2.6 11.3 0.01 0.11 0.00 100 1010.4
20260505123454 60 207 1.7 9.6 0.01 0.11 0.00 100 1010.3
20260505122954 59 220 1.7 6.1 0.00 0.10 0.00 100 1010.3
20260505122453 59 166 2.6 6.1 0.00 0.10 0.00 100 1010.3
20260505121951 59 161 2.6 6.1 0.00 0.10 0.00 100 1010.4
20260505121450 60 150 2.6 6.1 0.00 0.10 0.00 100 1010.5
20260505120950 59 161 2.6 7.0 0.00 0.10 0.00 100 1010.6
20260505120449 57 168 2.6 7.8 0.04 0.10 0.00 100 1010.6
20260505115948 56 172 3.5 7.8 0.04 0.10 0.00 100 1010.7
20260505115447 55 187 2.6 7.8 0.04 0.10 0.00 100 1010.8
20260505114945 55 173 3.5 7.8 0.04 0.10 0.00 100 1010.9
20260505114444 55 190 3.5 8.7 0.04 0.10 0.00 100 1010.9
20260505113441 55 186 3.5 8.7 0.03 0.09 0.00 100 1010.8
20260505112940 55 178 4.3 8.7 0.03 0.09 0.00 100 1011.0
20260505111938 55 161 2.6 12.2 0.02 0.08 0.00 100 1010.8
20260505111437 55 191 1.7 12.2 0.01 0.07 0.00 100 1010.9
20260505110435 57 252 1.7 3.5 0.02 0.04 0.00 100 1010.9
20260505101421 57 254 1.7 3.5 0.00 0.02 0.00 100 1011.0
20260505100417 56 239 1.7 5.2 0.01 0.02 0.00 100 1011.0
20260505095915 57 247 0.9 6.1 0.00 0.01 0.00 100 1010.9
20260505095415 58 279 2.6 7.8 0.00 0.01 0.00 100 1010.9
20260505094913 58 259 2.6 7.8 0.00 0.01 0.00 100 1010.8
20260505094411 58 262 1.7 3.5 0.00 0.01 0.00 100 1010.8
20260505093909 58 273 1.7 5.2 0.00 0.01 0.00 100 1010.8
20260505093406 58 239 2.6 7.0 0.00 0.01 0.00 100 1010.9
20260505092903 58 238 1.7 7.0 0.00 0.01 0.00 100 1010.7
20260505091857 60 296 1.7 5.2 0.00 0.01 0.00 100 1010.7
20260505091356 60 255 1.7 4.3 0.00 0.01 0.00 100 1010.7
20260505090854 60 264 0.9 5.2 0.00 0.01 0.00 100 1010.6
20260505090352 60 156 0.9 5.2 0.00 0.01 0.00 100 1010.7
20260505085851 60 231 0.9 2.6 0.00 0.01 0.00 100 1010.6
20260505085350 60 257 0.9 2.6 0.00 0.01 0.00 100 1010.6
20260505084849 59 252 0.9 5.2 0.00 0.01 0.00 100 1010.6
20260505084348 59 174 2.6 5.2 0.00 0.01 0.00 100 1010.6
20260505083847 59 161 1.7 4.3 0.00 0.01 0.00 100 1010.6
20260505083344 59 168 1.7 3.5 0.00 0.01 0.00 100 1010.5
20260505082843 59 149 1.7 3.5 0.00 0.01 0.00 100 1010.4
20260505082340 58 124 0.9 3.5 0.00 0.01 0.00 100 1010.5
20260505081837 57 173 1.7 4.3 0.00 0.01 0.00 100 1010.4
20260505081335 57 149 1.7 4.3 0.00 0.01 0.00 100 1010.4
20260505080834 57 161 1.7 3.5 0.00 0.01 0.00 100 1010.4
20260505080333 57 165 1.7 3.5 0.00 0.01 0.00 100 1010.5
20260505075832 57 166 0.9 2.6 0.00 0.01 0.00 100 1010.4
20260505075330 57 160 0.9 3.5 0.00 0.01 0.00 100 1010.4
20260505074828 56 183 0.9 3.5 0.00 0.01 0.00 100 1010.6
20260505074326 56 172 0.9 2.6 0.00 0.01 0.00 100 1010.6
20260505073826 55 226 0.9 2.6 0.00 0.01 0.00 100 1010.7
20260505073323 55 166 0.9 2.6 0.00 0.01 0.00 100 1010.6
20260505072821 54 173 1.7 2.6 0.00 0.01 0.00 100 1010.7
20260505072317 54 162 0.9 3.5 0.00 0.01 0.00 100 1010.7
20260505071816 54 169 1.7 3.5 0.00 0.01 0.00 100 1010.8
20260505071314 54 167 0.0 1.7 0.00 0.01 0.00 100 1010.8
20260505070814 54 126 0.0 2.6 0.00 0.01 0.00 100 1010.8
20260505070313 54 155 0.9 2.6 0.00 0.01 0.00 100 1010.9
20260505065310 53 303 0.0 0.9 0.00 0.01 0.00 100 1010.9
20260505064809 53 308 0.0 0.9 0.00 0.01 0.00 100 1010.9
20260505064307 52 354 0.0 0.9 0.00 0.01 0.00 100 1010.9
20260505063806 52 285 0.0 0.9 0.00 0.01 0.00 100 1011.0
20260505063305 52 315 0.0 0.0 0.00 0.01 0.00 100 1011.0
20260505062803 52 311 0.0 0.0 0.00 0.01 0.00 100 1011.0
20260505062301 51 266 0.0 0.0 0.00 0.01 0.00 100 1011.1
20260505061800 51 281 0.0 0.0 0.00 0.01 0.00 100 1011.2
20260505061258 51 308 0.0 0.9 0.00 0.01 0.00 100 1011.2
20260505060256 51 176 0.0 0.9 0.01 0.01 0.00 100 1011.3
20260505055754 51 271 0.0 1.7 0.01 0.01 0.00 100 1011.4
20260505055254 50 185 0.0 1.7 0.01 0.01 0.00 100 1011.4
20260505054752 50 185 0.0 0.0 0.01 0.01 0.00 100 1011.4
20260505054251 50 254 0.0 0.0 0.01 0.01 0.00 100 1011.4
20260505053751 50 318 0.0 0.0 0.01 0.01 0.00 100 1011.5
20260505053250 50 273 0.0 0.0 0.00 0.00 0.00 100 1011.4
20260505052749 50 311 0.0 0.9 0.00 0.00 0.00 100 1011.5
20260505051745 50 9 0.0 1.7 0.00 0.00 0.00 100 1011.6
20260505051244 50 171 0.9 2.6 0.00 0.00 0.00 100 1011.7
20260505050743 50 231 0.0 2.6 0.00 0.00 0.00 100 1011.7
20260505050241 50 87 0.0 1.7 0.02 0.18 0.00 100 1011.8
20260505041727 50 329 0.0 0.9 0.01 0.17 0.00 100 1012.0
20260505041226 50 316 0.0 0.9 0.00 0.16 0.00 100 1012.1
20260505040725 50 265 0.0 0.9 0.00 0.16 0.00 100 1012.1
20260505035722 50 161 0.9 1.7 0.03 0.15 0.00 100 1012.4
20260505035221 50 239 0.0 1.7 0.03 0.15 0.00 100 1012.3
20260505034720 50 165 0.9 2.6 0.03 0.15 0.00 100 1012.3
20260505034220 49 172 0.9 3.5 0.02 0.14 0.00 100 1012.4
20260505033719 49 174 1.7 3.5 0.02 0.14 0.00 100 1012.4
20260505033218 49 169 1.7 3.5 0.02 0.14 0.00 100 1012.4
20260505032717 49 169 0.9 2.6 0.02 0.14 0.00 100 1012.4
20260505032216 49 173 1.7 2.6 0.01 0.14 0.00 100 1012.4
20260505031715 49 165 0.9 2.6 0.01 0.14 0.00 100 1012.5
20260505031213 49 171 1.7 2.6 0.01 0.14 0.00 100 1012.6
20260505030709 49 168 0.9 1.7 0.00 0.13 0.00 100 1012.5
20260505030209 49 166 0.9 2.6 0.03 0.13 0.00 100 1012.6
20260505025702 49 171 0.9 2.6 0.03 0.13 0.00 100 1012.6
20260505025158 49 179 0.9 1.7 0.02 0.12 0.00 100 1012.7
20260505024653 50 170 0.9 1.7 0.02 0.12 0.00 100 1012.8
20260505024145 50 173 0.9 2.6 0.02 0.12 0.00 100 1012.7
20260505023642 50 168 0.9 2.6 0.02 0.12 0.00 100 1012.8
20260505023141 50 176 0.9 2.6 0.01 0.11 0.00 100 1012.8
20260505022637 49 193 0.9 2.6 0.01 0.11 0.00 100 1012.9
20260505022136 49 173 0.9 1.7 0.01 0.11 0.00 100 1012.8
20260505021635 49 170 0.9 1.7 0.01 0.11 0.00 100 1012.8
20260505021134 49 168 0.9 1.7 0.00 0.10 0.00 100 1012.9
20260505020132 49 160 0.0 1.7 0.03 0.09 0.00 100 1012.9
20260505015631 49 187 0.0 2.6 0.03 0.09 0.00 100 1012.9
20260505015129 49 158 0.9 2.6 0.02 0.08 0.00 100 1012.9
20260505014628 49 168 0.9 3.5 0.02 0.08 0.00 100 1013.0
20260505013625 49 172 2.6 4.3 0.01 0.07 0.00 100 1013.1
20260505013124 48 172 0.0 0.9 0.01 0.07 0.00 100 1013.0
20260505012119 48 352 0.0 0.9 0.00 0.06 0.00 100 1013.1
20260505011115 49 300 0.0 2.6 0.00 0.06 0.00 100 1013.0
20260505010614 50 18 0.9 2.6 0.00 0.06 0.00 100 1013.1
20260505010113 49 332 0.0 0.9 0.00 0.06 0.00 100 1013.1
20260505005612 49 315 0.0 2.6 0.00 0.06 0.00 100 1013.3
20260505005111 49 170 0.0 3.5 0.00 0.06 0.00 100 1013.4
20260505004610 49 220 0.9 3.5 0.00 0.06 0.00 100 1013.4
20260505003606 48 207 0.9 2.6 0.00 0.06 0.00 100 1013.5
20260505003106 48 259 0.0 2.6 0.00 0.06 0.00 100 1013.5
20260505002104 48 195 0.9 2.6 0.00 0.06 0.00 100 1013.6
20260505001603 48 229 0.9 2.6 0.00 0.06 0.00 100 1013.7
20260505001102 48 236 0.9 2.6 0.00 0.06 0.00 100 1013.7
20260505000600 48 178 1.7 3.5 0.00 0.06 0.00 100 1013.7
20260505000059 48 174 1.7 3.5 0.00 0.06 0.00 100 1013.7
20260504235558 47 175 0.9 2.6 0.00 0.06 0.00 100 1013.5
20260504234556 47 189 0.9 2.6 0.00 0.06 0.00 100 1013.5
20260504234055 47 172 0.9 1.7 0.00 0.06 0.00 100 1013.5
20260504233554 47 286 0.0 2.6 0.00 0.06 0.00 100 1013.3
20260504233053 47 300 0.0 2.6 0.00 0.06 0.00 100 1013.4
20260504232552 47 192 0.0 1.7 0.00 0.06 0.00 100 1013.5
20260504231549 46 302 0.0 0.9 0.00 0.06 0.00 100 1013.6
20260504231049 46 278 0.0 2.6 0.00 0.06 0.00 100 1013.5
20260504230547 46 185 0.9 2.6 0.00 0.06 0.00 100 1013.7
20260504230046 46 165 0.9 2.6 0.00 0.06 0.00 100 1013.6
20260504225544 46 213 0.0 2.6 0.00 0.06 0.00 100 1013.6
20260504225043 46 254 0.0 0.0 0.00 0.06 0.00 100 1013.6
20260504224542 46 268 0.0 0.0 0.00 0.06 0.00 100 1013.6
20260504224041 46 259 0.0 1.7 0.00 0.06 0.00 100 1013.8
20260504223540 46 253 0.0 1.7 0.00 0.06 0.00 100 1013.6
20260504223039 46 246 0.9 1.7 0.00 0.06 0.00 100 1013.7
20260504222538 46 268 0.0 2.6 0.00 0.06 0.00 100 1013.8
20260504222036 46 177 0.9 2.6 0.00 0.06 0.00 100 1013.9
20260504221535 46 171 1.7 2.6 0.00 0.06 0.00 100 1013.9
20260504221034 46 261 0.0 1.7 0.00 0.06 0.00 100 1013.8
20260504220532 47 230 0.0 2.6 0.00 0.06 0.00 100 1013.7
20260504220031 46 177 0.9 2.6 0.00 0.06 0.00 100 1013.8
20260504215530 46 254 0.0 1.7 0.00 0.06 0.00 100 1013.7
20260504215028 46 170 0.9 1.7 0.00 0.06 0.00 100 1013.8
20260504214527 46 203 0.0 1.7 0.00 0.06 0.00 100 1013.9
20260504214026 47 263 0.9 0.9 0.00 0.06 0.00 100 1014.0
20260504213525 47 225 0.0 1.7 0.00 0.06 0.00 100 1014.1
20260504212522 47 278 0.0 1.7 0.00 0.06 0.00 100 1014.0
20260504212021 48 179 0.9 1.7 0.00 0.06 0.00 100 1014.0
20260504211521 48 267 0.0 1.7 0.00 0.06 0.00 100 1014.0
20260504211019 48 175 0.9 1.7 0.00 0.06 0.00 100 1014.0
20260504210518 48 194 0.9 1.7 0.00 0.06 0.00 100 1014.1
20260504210017 49 200 0.0 1.7 0.00 0.06 0.00 100 1014.1
20260504205515 49 177 0.9 1.7 0.00 0.06 0.00 100 1014.2
20260504204513 49 225 0.0 0.9 0.00 0.06 0.00 100 1014.2
20260504204011 49 189 0.0 0.9 0.00 0.06 0.00 100 1014.3
20260504203009 50 252 0.0 0.0 0.00 0.06 0.00 100 1014.4
20260504202508 50 270 0.0 0.0 0.00 0.06 0.00 100 1014.3
20260504202006 50 181 0.0 0.0 0.00 0.06 0.00 100 1014.4